EW7947 Weather Reports


time (UTC)temp
C
wind
direction
speed
KPH
gust
KPH
rain 1hr
cm
rain 24hr
cm
rain mn
cm
humidity
%
barometer
mb
20260507040018 12 360 0.0 0.0 0.00 0.00 0.00 27 1016.2
20260507034521 12 360 4.8 0.0 0.00 0.00 0.00 26 1016.3
20260507033013 12 360 1.6 0.0 0.00 0.00 0.00 26 1016.1
20260507031511 13 360 6.4 0.0 0.00 0.00 0.00 26 1016.0
20260507030009 13 333 9.7 0.0 0.00 0.00 0.00 25 1015.5
20260507024508 13 325 9.7 0.0 0.00 0.00 0.00 24 1015.2
20260507023004 14 337 14.5 0.0 0.00 0.00 0.00 23 1014.8
20260507021503 15 334 16.1 0.0 0.00 0.00 0.00 21 1014.6
20260507020104 15 323 17.7 0.0 0.00 0.00 0.00 20 1014.6
20260507014605 16 282 17.7 0.0 0.00 0.00 0.00 19 1014.4
20260507013103 16 323 17.7 0.0 0.00 0.00 0.00 19 1014.3
20260507011558 16 318 25.7 0.0 0.00 0.00 0.00 18 1014.2
20260507010055 17 310 22.5 0.0 0.00 0.00 0.00 18 1014.2
20260507004554 17 333 25.7 0.0 0.00 0.00 0.00 18 1013.9
20260507003056 17 336 19.3 0.0 0.00 0.00 0.00 16 1013.7
20260507001552 17 313 24.1 0.0 0.00 0.00 0.00 17 1013.7
20260507000051 17 334 20.9 0.0 0.00 0.00 0.00 17 1013.4
20260506234558 17 347 8.0 0.0 0.00 0.00 0.00 17 1013.4
20260506233052 18 5 20.9 0.0 0.00 0.00 0.00 16 1013.4
20260506231554 17 337 25.7 0.0 0.00 0.00 0.00 16 1013.2
20260506230048 17 305 24.1 0.0 0.00 0.00 0.00 17 1013.2
20260506224547 17 327 22.5 0.0 0.00 0.00 0.00 17 1013.2
20260506223046 17 325 14.5 0.0 0.00 0.00 0.00 18 1013.1
20260506221547 17 15 27.4 0.0 0.00 0.00 0.00 17 1013.1
20260506220050 17 355 17.7 0.0 0.00 0.00 0.00 18 1013.1
20260506214547 17 360 19.3 0.0 0.00 0.00 0.00 18 1013.1
20260506213045 17 346 19.3 0.0 0.00 0.00 0.00 21 1013.3
20260506211540 17 355 14.5 0.0 0.00 0.00 0.00 21 1013.0
20260506210038 16 360 12.9 0.0 0.00 0.00 0.00 22 1013.1
20260506204542 16 5 17.7 0.0 0.00 0.00 0.00 21 1013.3
20260506203040 17 360 16.1 0.0 0.00 0.00 0.00 22 1013.1
20260506201539 16 340 12.9 0.0 0.00 0.00 0.00 24 1013.1
20260506200039 16 14 14.5 0.0 0.00 0.00 0.00 24 1013.4
20260506194532 16 355 22.5 0.0 0.00 0.00 0.00 24 1013.4
20260506193028 15 348 24.1 0.0 0.00 0.00 0.00 25 1013.2
20260506191526 15 348 16.1 0.0 0.00 0.00 0.00 27 1013.1
20260506190021 14 67 14.5 0.0 0.00 0.00 0.00 37 1013.2
20260506184519 13 65 6.4 0.0 0.00 0.00 0.00 39 1013.5
20260506183014 12 65 4.8 0.0 0.00 0.00 0.00 48 1013.7
20260506181512 12 65 4.8 0.0 0.00 0.00 0.00 49 1013.6
20260506180013 12 57 1.6 0.0 0.00 0.00 0.00 52 1013.5
20260506174505 11 56 6.4 0.0 0.00 0.00 0.00 54 1013.2
20260506173003 10 53 9.7 0.0 0.00 0.00 0.00 58 1013.1
20260506171502 10 52 14.5 0.0 0.00 0.00 0.00 59 1013.0
20260506170100 11 52 8.0 0.0 0.00 0.00 0.00 59 1012.7
20260506164606 10 360 9.7 0.0 0.00 0.00 0.00 62 1012.4
20260506163105 10 11 11.3 0.0 0.00 0.00 0.00 65 1012.2
20260506161627 9 24 14.5 0.0 0.00 0.00 0.00 67 1012.2
20260506160053 8 55 16.1 0.0 0.00 0.00 0.00 70 1012.0
20260506154553 8 360 25.7 0.0 0.00 0.00 0.00 70 1011.9
20260506153056 8 52 22.5 0.0 0.00 0.00 0.00 74 1011.6
20260506151549 8 46 19.3 0.0 0.00 0.00 0.00 73 1011.3
20260506150045 8 57 17.7 0.0 0.00 0.00 0.00 72 1011.2
20260506144543 8 280 8.0 0.0 0.00 0.00 0.00 70 1011.1
20260506143043 8 323 3.2 0.0 0.00 0.00 0.00 67 1010.8
20260506141538 7 323 6.4 0.0 0.00 0.00 0.00 66 1010.5
20260506140032 7 288 11.3 0.0 0.00 0.00 0.00 65 1010.3
20260506134529 8 257 6.4 0.0 0.00 0.00 0.00 66 1009.9
20260506133024 7 267 6.4 0.0 0.00 0.00 0.00 70 1009.7
20260506131530 7 267 9.7 0.0 0.00 0.00 0.00 68 1009.2
20260506130021 6 269 9.7 0.0 0.00 0.00 0.00 69 1009.1
20260506124518 6 270 9.7 0.0 0.00 0.00 0.00 69 1008.8
20260506123014 7 266 4.8 0.0 0.00 0.00 0.00 68 1008.3
20260506121513 7 282 3.2 0.0 0.00 0.00 0.00 64 1008.2
20260506120017 7 9 4.8 0.0 0.00 0.00 0.00 63 1008.2
20260506114509 7 9 1.6 0.0 0.00 0.00 0.00 61 1007.9
20260506113009 7 9 1.6 0.0 0.00 0.00 0.00 62 1007.9
20260506111508 8 11 8.0 0.0 0.00 0.00 0.00 63 1008.1
20260506110006 7 26 11.3 0.0 0.00 0.00 0.00 60 1008.0
20260506104504 8 23 19.3 0.0 0.00 0.00 0.00 54 1008.0
20260506103002 10 347 6.4 0.0 0.00 0.00 0.00 49 1007.8
20260506101620 10 301 12.9 0.0 0.00 0.00 0.00 54 1007.6
20260506100118 10 296 6.4 0.0 0.00 0.00 0.00 51 1007.2
20260506094553 9 273 12.9 0.0 0.00 0.00 0.00 47 1007.2
20260506093051 8 300 8.0 0.0 0.00 0.00 0.00 49 1006.6
20260506091551 8 236 11.3 0.0 0.00 0.00 0.00 50 1006.2
20260506090049 7 317 4.8 0.0 0.00 0.00 0.00 51 1006.5
20260506084611 7 325 6.4 0.0 0.00 0.00 0.00 52 1006.1
20260506083046 7 281 4.8 0.0 0.00 0.00 0.00 53 1005.9
20260506081551 7 264 3.2 0.0 0.00 0.00 0.00 53 1006.1
20260506073045 8 252 20.9 0.0 0.00 0.00 0.00 50 1006.0
20260506071538 8 260 19.3 0.0 0.00 0.00 0.00 50 1005.8
20260506061527 8 227 6.4 0.0 0.00 0.00 0.00 50 1005.4
20260506044548 10 296 8.0 0.0 0.00 0.00 0.00 47 1004.9
20260506043017 10 301 9.7 0.0 0.00 0.00 0.00 47 1004.7
20260506041517 10 291 9.7 0.0 0.00 0.00 0.00 46 1004.7